GW6586 Weather Reports


Display with metric or nautical units.
time (UTC)temp
F
wind
direction
speed
MPH
gust
MPH
rain 1hr
in
rain 24hr
in
rain mn
in
humidity
%
barometer
mb
20260504231517 54 65 5.0 11.0 0.00 0.00 0.00 80 1025.3
20260504230016 53 96 7.0 10.0 0.00 0.00 0.00 81 1025.2
20260504224520 53 113 7.0 11.0 0.00 0.00 0.00 82 1025.1
20260504220021 52 113 3.0 8.0 0.00 0.00 0.00 83 1024.9
20260504214524 52 99 4.0 9.0 0.00 0.00 0.00 83 1024.7
20260504213036 52 125 4.0 8.0 0.00 0.00 0.00 84 1024.7
20260504211508 52 129 4.0 8.0 0.00 0.00 0.00 83 1024.7
20260504210017 52 136 5.0 7.0 0.00 0.00 0.00 84 1024.8
20260504204508 52 117 3.0 6.0 0.00 0.00 0.00 83 1024.9
20260504200009 52 134 3.0 4.0 0.00 0.00 0.00 83 1024.9
20260504194518 53 134 2.0 4.0 0.00 0.00 0.00 82 1024.8
20260504193023 53 140 2.0 7.0 0.00 0.00 0.00 81 1024.8
20260504191511 54 146 3.0 4.0 0.00 0.00 0.00 81 1024.9
20260504183016 55 116 4.0 8.0 0.00 0.00 0.00 78 1025.1
20260504181522 55 99 4.0 8.0 0.00 0.00 0.00 78 1025.1
20260504180008 55 130 3.0 5.0 0.00 0.00 0.00 77 1025.1
20260504174519 56 154 4.0 6.0 0.00 0.00 0.00 76 1025.2
20260504081509 66 224 9.0 14.0 0.00 0.00 0.00 68 1025.0
20260504044533 69 92 3.0 6.0 0.00 0.00 0.00 54 1026.1
20260504043028 69 137 4.0 8.0 0.00 0.00 0.00 55 1026.2
20260504041528 68 17 4.0 8.0 0.00 0.00 0.00 57 1026.5
20260504040022 67 101 4.0 9.0 0.00 0.00 0.00 57 1026.7
20260504034528 68 92 5.0 9.0 0.00 0.00 0.00 56 1026.9
20260504033019 66 104 6.0 11.0 0.00 0.00 0.00 59 1027.0
20260504031529 66 86 7.0 12.0 0.00 0.00 0.00 60 1027.1
20260504030028 66 120 6.0 11.0 0.00 0.00 0.00 60 1027.3
20260504024523 66 53 7.0 12.0 0.00 0.00 0.00 62 1027.4
20260504023007 64 118 8.0 13.0 0.00 0.00 0.00 65 1027.6
20260504021517 64 88 6.0 11.0 0.00 0.00 0.00 66 1027.4
20260504020027 63 104 5.0 12.0 0.00 0.00 0.00 68 1027.6
20260504014513 62 113 7.0 11.0 0.00 0.00 0.00 68 1027.5
20260504013030 61 121 10.0 12.0 0.00 0.00 0.00 69 1027.5
20260504011506 61 77 5.0 13.0 0.00 0.00 0.00 71 1027.5
20260504010015 60 89 6.0 11.0 0.00 0.00 0.00 72 1027.4
20260504004524 59 102 7.0 13.0 0.00 0.00 0.00 74 1027.4
20260504003021 58 100 9.0 13.0 0.00 0.00 0.00 76 1027.4
20260504001519 57 100 6.0 13.0 0.00 0.00 0.00 78 1027.3
20260504000025 56 71 6.0 9.0 0.00 0.00 0.00 80 1027.3
20260503234514 55 95 6.0 10.0 0.00 0.00 0.00 81 1027.2